Miscellaneous Local Product
Issued by NWS Hastings, NE

Home | Current Version | Previous Version | Text Only | Print | Product List | Glossary Off
Versions: 1 2 3 4 5 6 7 8 9 10 11 12 13 14 15 16 17 18 19 20 21 22 23 24 25 26 27 28 29 30 31 32 33 34 35 36 37 38 39 40 41 42 43 44 45 46 47 48 49 50

000
AXUS43 KGID 150302
MISGRI

GID CWA HOURLY WEATHER ROUNDUP
NATIONAL WEATHER SERVICE HASTINGS NE
1000 PM CDT MON APR 14 2014

NOTE: "FAIR" INDICATES FEW OR NO CLOUDS BELOW 12,000 FEET WITH NO
SIGNIFICANT WEATHER AND/OR OBSTRUCTIONS TO VISIBILITY.

...SOUTH CENTRAL NEBRASKA...

CITY           SKY/WX    TMP DP  RH WIND       PRES   REMARKS
GRAND ISLAND   CLEAR     33  26  75 N6        30.17R WCI  28
HASTINGS       CLEAR     36  22  56 NW12      30.16R WCI  28
ORD            CLEAR     30  15  53 NW8       30.17R WCI  22
YORK           CLEAR     32  32 100 N3        30.16R
AURORA         CLEAR     33  29  85 N5        30.15R WCI  29
LEXINGTON      CLEAR     33  22  65 N7        30.17R WCI  26
HOLDREGE       CLEAR     35  22  59 N8        30.17R WCI  28
HEBRON         CLEAR     33  29  86 CALM      30.16R

...NEBRASKA PANHANDLE...

CITY           SKY/WX    TMP DP  RH WIND       PRES   REMARKS
CHADRON        CLOUDY    33  23  66 SE8       30.10R WCI  26
ALLIANCE       CLEAR     29  18  63 NW6       30.10S WCI  23
SCOTTSBLUFF    CLEAR     32  17  54 S6        30.12S WCI  26
SIDNEY         CLEAR     27  20  75 NW5       30.14S WCI  22

...WESTERN AND NORTH CENTRAL NEBRASKA...

CITY           SKY/WX    TMP DP  RH WIND       PRES   REMARKS
VALENTINE      CLEAR     28  13  53 NE3       30.16R
AINSWORTH      CLEAR     29  13  52 CALM      30.16S
ONEILL         CLEAR     29  16  58 N8        30.18R WCI  21
BROKEN BOW     CLEAR     28  14  55 N7        30.16R WCI  21
IMPERIAL       CLEAR     35  23  61 NW13      30.17R WCI  26
NORTH PLATTE   CLEAR     29  15  56 CALM      30.16R
MCCOOK         PTCLDY    34  23  64 NW8       30.18R WCI  27

...EASTERN NEBRASKA...

CITY           SKY/WX    TMP DP  RH WIND       PRES   REMARKS
NORFOLK        CLOUDY    34  18  52 N10       30.16R WCI  26
SO SIOUX CITY  CLEAR     31  18  58 N9        30.18R WCI  23
TEKAMAH        CLOUDY    34  23  64 N8        30.17R WCI  27
COLUMBUS       CLEAR     30  23  74 CALM      30.18R
ALBION         CLEAR     30  27  89 CALM      30.17R
OMAHA EPPLEY   MOCLDY    33  21  61 NW7       30.17R WCI  27
OFFUTT AFB     PTCLDY    33  21  62 NW6       30.17R WCI  27
MILLARD        CLEAR     37  20  52 N5        30.17R WCI  33
LINCOLN        CLEAR     31  23  72 N6        30.18R WCI  25
NEBRASKA CITY  CLOUDY    37  26  66 N3        30.16R
BEATRICE       CLEAR     32  31  97 CALM      30.16R FOG
FALLS CITY     CLOUDY    38  24  57 CALM      30.16R

...NORTHERN KANSAS...

CITY           SKY/WX    TMP DP  RH WIND       PRES   REMARKS
GOODLAND       CLEAR     28  18  66 W13       30.20R WCI  17
HILL CITY      CLEAR     36  22  56 W9        30.19R WCI  29
PHILLIPSBURG   CLEAR     32  19  59 W5        30.18R WCI  27
SMITH CENTER   CLEAR     36  21  55 NW3       30.18R
BELOIT         CLEAR     32  23  69 CALM      30.17R
HAYS           CLEAR     34  16  47 W8        30.19R WCI  27
RUSSELL        CLEAR     36  19  50 W9        30.18R WCI  29
CONCORDIA      CLEAR     36  28  73 W6        30.16R WCI  31
SALINA         CLEAR     37  17  44 W6        30.19R WCI  32
TOPEKA         CLOUDY    36  28  73 N3        30.18R



USA.gov is the U.S. government's official web portal to all federal, state and local government web resources and services.